Time,TemperatureF,DewpointF,PressureIn,WindDirection,WindDirectionDegrees,WindSpeedMPH,WindSpeedGustMPH,Humidity,HourlyPrecipIn,Conditions,Clouds,dailyrainin,SoftwareType,DateUTC
2013-02-02 00:03:00,14.0,-9.3,29.68,NW,316,3.0,6.0,34,0.00,CLR,CLR,0.00,WeatherDisplay:10.37,2013-02-02 05:03:00,
2013-02-02 00:08:00,13.8,-9.4,29.68,NW,325,2.0,6.0,34,0.00,CLR,CLR,0.00,WeatherDisplay:10.37,2013-02-02 05:08:00,
2013-02-02 00:13:00,13.6,-9.6,29.68,NNW,343,2.0,4.0,34,0.00,CLR,CLR,0.00,WeatherDisplay:10.37,2013-02-02 05:13:00,
2013-02-02 00:18:00,13.6,-9.7,29.68,NNW,338,2.0,6.0,34,0.00,CLR,CLR,0.00,WeatherDisplay:10.37,2013-02-02 05:18:00,
2013-02-02 00:25:00,13.5,-9.8,29.68,NW,325,5.0,8.0,34,0.00,CLR,CLR,0.00,WeatherDisplay:10.37,2013-02-02 05:25:00,
2013-02-02 00:33:00,13.5,-9.8,29.68,NW,311,3.0,5.0,34,0.00,CLR,CLR,0.00,WeatherDisplay:10.37,2013-02-02 05:33:00,
2013-02-02 00:38:00,13.4,-9.8,29.68,WNW,303,3.0,6.0,34,0.00,CLR,CLR,0.00,WeatherDisplay:10.37,2013-02-02 05:38:00,
2013-02-02 00:48:00,13.3,-9.9,29.68,WNW,294,0.0,3.0,34,0.00,CLR,CLR,0.00,WeatherDisplay:10.37,2013-02-02 05:48:00,
2013-02-02 00:58:00,13.1,-10.1,29.68,NW,305,0.0,6.0,34,0.00,CLR,CLR,0.00,WeatherDisplay:10.37,2013-02-02 05:58:00,
2013-02-02 01:03:00,12.9,-10.2,29.68,NW,306,0.0,2.0,34,0.00,CLR,CLR,0.00,WeatherDisplay:10.37,2013-02-02 06:03:00,
2013-02-02 01:08:00,12.7,-10.4,29.68,WNW,300,0.0,4.0,34,0.00,CLR,CLR,0.00,WeatherDisplay:10.37,2013-02-02 06:08:00,
2013-02-02 01:18:00,12.6,-10.6,29.68,WNW,303,0.0,4.0,34,0.00,CLR,CLR,0.00,WeatherDisplay:10.37,2013-02-02 06:18:00,
2013-02-02 01:28:00,12.6,-10.6,29.68,NW,323,2.0,4.0,34,0.00,CLR,CLR,0.00,WeatherDisplay:10.37,2013-02-02 06:28:00,
2013-02-02 01:38:00,12.6,-10.6,29.68,NW,313,3.0,5.0,34,0.00,CLR,CLR,0.00,WeatherDisplay:10.37,2013-02-02 06:38:00,
2013-02-02 01:48:00,12.6,-10.5,29.71,NNW,329,5.0,6.0,34,0.00,CLR,CLR,0.00,WeatherDisplay:10.37,2013-02-02 06:48:00,
2013-02-02 01:58:00,13.6,-9.7,29.71,NW,314,8.0,17.0,34,0.00,CLR,CLR,0.00,WeatherDisplay:10.37,2013-02-02 06:58:00,
2013-02-02 02:03:00,14.0,-9.3,29.71,NW,310,8.0,15.0,34,0.00,CLR,CLR,0.00,WeatherDisplay:10.37,2013-02-02 07:03:00,
2013-02-02 02:08:00,14.0,-9.3,29.71,WNW,302,7.0,14.0,34,0.00,CLR,CLR,0.00,WeatherDisplay:10.37,2013-02-02 07:08:00,
2013-02-02 02:18:00,14.0,-9.3,29.71,WNW,302,8.0,14.0,34,0.00,CLR,CLR,0.00,WeatherDisplay:10.37,2013-02-02 07:18:00,
2013-02-02 02:28:00,14.0,-9.3,29.71,NW,316,9.0,13.0,34,0.00,CLR,CLR,0.00,WeatherDisplay:10.37,2013-02-02 07:28:00,
2013-02-02 02:38:00,13.8,-9.4,29.71,NW,314,8.0,13.0,34,0.00,CLR,CLR,0.00,WeatherDisplay:10.37,2013-02-02 07:38:00,
2013-02-02 02:48:00,13.8,-9.4,29.71,WNW,299,9.0,17.0,34,0.00,CLR,CLR,0.00,WeatherDisplay:10.37,2013-02-02 07:48:00,
2013-02-02 02:58:00,13.6,-9.6,29.71,NW,314,7.0,15.0,34,0.00,CLR,CLR,0.00,WeatherDisplay:10.37,2013-02-02 07:58:00,
2013-02-02 03:08:00,13.5,-9.8,29.71,NW,310,6.0,15.0,34,0.00,CLR,CLR,0.00,WeatherDisplay:10.37,2013-02-02 08:08:00,
2013-02-02 03:18:00,13.4,-9.8,29.74,NW,309,8.0,13.0,34,0.00,CLR,CLR,0.00,WeatherDisplay:10.37,2013-02-02 08:18:00,
2013-02-02 03:28:00,13.3,-9.9,29.74,NW,313,5.0,13.0,34,0.00,CLR,CLR,0.00,WeatherDisplay:10.37,2013-02-02 08:28:00,
2013-02-02 03:38:00,13.1,-10.1,29.74,NW,318,3.0,10.0,34,0.00,CLR,CLR,0.00,WeatherDisplay:10.37,2013-02-02 08:38:00,
2013-02-02 03:48:00,12.9,-10.2,29.74,NW,307,5.0,10.0,34,0.00,CLR,CLR,0.00,WeatherDisplay:10.37,2013-02-02 08:48:00,
2013-02-02 03:58:00,12.7,-10.4,29.74,NW,306,3.0,9.0,34,0.00,CLR,CLR,0.00,WeatherDisplay:10.37,2013-02-02 08:58:00,
2013-02-02 04:03:00,12.7,-10.4,29.74,NW,306,5.0,8.0,34,0.00,CLR,CLR,0.00,WeatherDisplay:10.37,2013-02-02 09:03:00,
2013-02-02 04:08:00,12.7,-10.4,29.74,NW,306,2.0,8.0,34,0.00,CLR,CLR,0.00,WeatherDisplay:10.37,2013-02-02 09:08:00,
2013-02-02 04:18:00,12.6,-10.6,29.77,NW,306,6.0,13.0,34,0.00,CLR,CLR,0.00,WeatherDisplay:10.37,2013-02-02 09:18:00,
2013-02-02 04:28:00,12.6,-10.6,29.77,WNW,302,3.0,11.0,34,0.00,CLR,CLR,0.00,WeatherDisplay:10.37,2013-02-02 09:28:00,
2013-02-02 04:38:00,12.6,-10.6,29.77,NW,316,5.0,10.0,34,0.00,CLR,CLR,0.00,WeatherDisplay:10.37,2013-02-02 09:38:00,
2013-02-02 04:48:00,12.4,-10.7,29.77,NW,312,6.0,13.0,34,0.00,CLR,CLR,0.00,WeatherDisplay:10.37,2013-02-02 09:48:00,
2013-02-02 04:58:00,12.2,-10.9,29.77,WNW,302,6.0,13.0,34,0.00,CLR,CLR,0.00,WeatherDisplay:10.37,2013-02-02 09:58:00,
2013-02-02 05:03:00,12.0,-11.0,29.77,WNW,297,7.0,9.0,34,0.00,CLR,CLR,0.00,WeatherDisplay:10.37,2013-02-02 10:03:00,
2013-02-02 05:08:00,12.0,-11.0,29.77,WNW,299,6.0,11.0,34,0.00,CLR,CLR,0.00,WeatherDisplay:10.37,2013-02-02 10:08:00,
2013-02-02 05:18:00,12.0,-11.0,29.77,WNW,303,3.0,8.0,34,0.00,CLR,CLR,0.00,WeatherDisplay:10.37,2013-02-02 10:18:00,
2013-02-02 05:28:00,11.8,-11.2,29.77,NW,314,5.0,8.0,34,0.00,CLR,CLR,0.00,WeatherDisplay:10.37,2013-02-02 10:28:00,
2013-02-02 05:38:00,11.7,-11.4,29.77,NW,322,3.0,6.0,34,0.00,CLR,CLR,0.00,WeatherDisplay:10.37,2013-02-02 10:38:00,
2013-02-02 05:48:00,11.3,-11.7,29.77,NNW,327,3.0,6.0,34,0.00,CLR,CLR,0.00,WeatherDisplay:10.37,2013-02-02 10:48:00,
2013-02-02 05:58:00,11.3,-11.7,29.77,NW,326,2.0,4.0,34,0.00,CLR,CLR,0.00,WeatherDisplay:10.37,2013-02-02 10:58:00,
2013-02-02 06:03:00,11.1,-11.8,29.80,NW,323,1.0,4.0,34,0.00,CLR,CLR,0.00,WeatherDisplay:10.37,2013-02-02 11:03:00,
2013-02-02 06:08:00,10.9,-12.0,29.80,NW,317,5.0,9.0,34,0.00,CLR,CLR,0.00,WeatherDisplay:10.37,2013-02-02 11:08:00,
2013-02-02 06:18:00,11.3,-11.7,29.80,NW,310,5.0,11.0,34,0.00,CLR,CLR,0.00,WeatherDisplay:10.37,2013-02-02 11:18:00,
2013-02-02 06:28:00,11.1,-11.8,29.80,NW,313,3.0,6.0,34,0.00,CLR,CLR,0.00,WeatherDisplay:10.37,2013-02-02 11:28:00,
2013-02-02 06:38:00,10.9,-12.0,29.80,NW,319,3.0,6.0,34,0.00,CLR,CLR,0.00,WeatherDisplay:10.37,2013-02-02 11:38:00,
2013-02-02 06:48:00,10.8,-12.2,29.80,NW,309,5.0,6.0,34,0.00,CLR,CLR,0.00,WeatherDisplay:10.37,2013-02-02 11:48:00,
2013-02-02 06:58:00,10.6,-12.3,29.80,NW,317,2.0,4.0,34,0.00,CLR,CLR,0.00,WeatherDisplay:10.37,2013-02-02 11:58:00,
2013-02-02 07:08:00,10.6,-12.3,29.83,NW,313,0.0,2.0,34,0.00,CLR,CLR,0.00,WeatherDisplay:10.37,2013-02-02 12:08:00,
2013-02-02 07:18:00,10.4,-12.5,29.83,NW,313,0.0,0.0,34,0.00,CLR,CLR,0.00,WeatherDisplay:10.37,2013-02-02 12:18:00,
2013-02-02 07:28:00,10.6,-12.3,29.83,NNW,334,0.0,3.0,34,0.00,CLR,CLR,0.00,WeatherDisplay:10.37,2013-02-02 12:28:00,
2013-02-02 07:38:00,10.8,-12.2,29.83,ENE,67,0.0,0.0,34,0.00,CLR,CLR,0.00,WeatherDisplay:10.37,2013-02-02 12:38:00,
2013-02-02 07:48:00,10.9,-12.0,29.83,East,97,0.0,0.0,34,0.00,CLR,CLR,0.00,WeatherDisplay:10.37,2013-02-02 12:48:00,
2013-02-02 07:58:00,11.2,-11.8,29.83,South,176,5.0,5.0,34,0.00,CLR,CLR,0.00,WeatherDisplay:10.37,2013-02-02 12:58:00,
2013-02-02 08:03:00,11.5,-10.9,29.83,South,174,3.0,4.0,35,0.00,CLR,CLR,0.00,WeatherDisplay:10.37,2013-02-02 13:03:00,
2013-02-02 08:08:00,11.8,-11.2,29.83,South,169,0.0,4.0,34,0.00,CLR,CLR,0.00,WeatherDisplay:10.37,2013-02-02 13:08:00,
2013-02-02 08:18:00,12.5,-10.6,29.83,SSE,159,0.0,3.0,34,0.00,CLR,CLR,0.00,WeatherDisplay:10.37,2013-02-02 13:18:00,
2013-02-02 08:29:00,12.9,-10.2,29.83,SSE,160,3.0,4.0,34,0.00,CLR,CLR,0.00,WeatherDisplay:10.37,2013-02-02 13:29:00,
2013-02-02 08:39:00,13.6,-9.6,29.83,SSE,151,0.0,4.0,34,0.00,CLR,CLR,0.00,WeatherDisplay:10.37,2013-02-02 13:39:00,
2013-02-02 08:49:00,14.0,-9.3,29.83,SSE,147,2.0,6.0,34,0.00,CLR,CLR,0.00,WeatherDisplay:10.37,2013-02-02 13:49:00,
2013-02-02 08:59:00,14.5,-8.8,29.83,SSW,209,2.0,6.0,34,0.00,CLR,CLR,0.00,WeatherDisplay:10.37,2013-02-02 13:59:00,
2013-02-02 09:04:00,14.7,-8.6,29.83,South,178,3.0,6.0,34,0.00,CLR,CLR,0.00,WeatherDisplay:10.37,2013-02-02 14:04:00,
2013-02-02 09:09:00,14.9,-8.5,29.83,SSE,167,0.0,6.0,34,0.00,CLR,CLR,0.00,WeatherDisplay:10.37,2013-02-02 14:09:00,
2013-02-02 09:19:00,15.3,-8.8,29.83,SSE,167,0.0,6.0,33,0.00,CLR,CLR,0.00,WeatherDisplay:10.37,2013-02-02 14:19:00,
2013-02-02 09:29:00,15.8,-8.3,29.83,South,176,6.0,9.0,33,0.00,CLR,CLR,0.00,WeatherDisplay:10.37,2013-02-02 14:29:00,
2013-02-02 09:39:00,16.2,-8.0,29.83,South,176,5.0,7.0,33,0.00,CLR,CLR,0.00,WeatherDisplay:10.37,2013-02-02 14:39:00,
2013-02-02 09:49:00,16.9,-7.3,29.83,SSE,161,5.0,6.0,33,0.00,CLR,CLR,0.00,WeatherDisplay:10.37,2013-02-02 14:49:00,
2013-02-02 09:59:00,17.6,-6.7,29.83,South,190,0.0,6.0,33,0.00,CLR,CLR,0.00,WeatherDisplay:10.37,2013-02-02 14:59:00,
2013-02-02 10:04:00,17.8,-6.5,29.83,SSE,158,0.0,3.0,33,0.00,CLR,CLR,0.00,WeatherDisplay:10.37,2013-02-02 15:04:00,
2013-02-02 10:09:00,17.8,-6.5,29.83,SSE,155,2.0,4.0,33,0.00,CLR,CLR,0.00,WeatherDisplay:10.37,2013-02-02 15:09:00,
2013-02-02 10:19:00,18.1,-6.2,29.83,SSW,210,2.0,5.0,33,0.00,CLR,CLR,0.00,WeatherDisplay:10.37,2013-02-02 15:19:00,
2013-02-02 10:29:00,18.7,-5.7,29.83,South,184,6.0,8.0,33,0.00,CLR,CLR,0.00,WeatherDisplay:10.37,2013-02-02 15:29:00,
2013-02-02 10:39:00,18.7,-5.7,29.83,WSW,240,1.0,6.0,33,0.00,CLR,CLR,0.00,WeatherDisplay:10.37,2013-02-02 15:39:00,
2013-02-02 10:49:00,18.9,-6.2,29.83,SW,220,3.0,8.0,32,0.00,CLR,CLR,0.00,WeatherDisplay:10.37,2013-02-02 15:49:00,
2013-02-02 10:54:00,18.7,-5.7,29.83,West,273,0.0,6.0,33,0.00,CLR,CLR,0.00,WeatherDisplay:10.37,2013-02-02 15:54:00,
2013-02-02 10:59:00,18.7,-5.7,29.83,WNW,296,3.0,6.0,33,0.00,CLR,CLR,0.00,WeatherDisplay:10.37,2013-02-02 15:59:00,
2013-02-02 11:04:00,18.9,-5.6,29.80,South,184,3.0,7.0,33,0.00,CLR,CLR,0.00,WeatherDisplay:10.37,2013-02-02 16:04:00,
2013-02-02 11:09:00,19.2,-5.2,29.80,East,98,1.0,4.0,33,0.00,CLR,CLR,0.00,WeatherDisplay:10.37,2013-02-02 16:09:00,
2013-02-02 11:19:00,19.6,-4.9,29.80,SSE,166,6.0,8.0,33,0.00,CLR,CLR,0.00,WeatherDisplay:10.37,2013-02-02 16:19:00,
2013-02-02 11:29:00,20.4,-4.2,29.80,SSE,159,3.0,6.0,33,0.00,CLR,CLR,0.00,WeatherDisplay:10.37,2013-02-02 16:29:00,
2013-02-02 11:34:00,20.8,-4.4,29.77,SSE,160,1.0,6.0,32,0.00,CLR,CLR,0.00,WeatherDisplay:10.37,2013-02-02 16:34:00,
2013-02-02 11:39:00,20.5,-4.1,29.77,SSE,158,5.0,6.0,33,0.00,CLR,CLR,0.00,WeatherDisplay:10.37,2013-02-02 16:39:00,
2013-02-02 11:49:00,21.0,-4.3,29.77,SE,140,3.0,8.0,32,0.00,CLR,CLR,0.00,WeatherDisplay:10.37,2013-02-02 16:49:00,
2013-02-02 11:58:00,21.4,-4.0,29.77,SSE,159,0.0,6.0,32,0.00,CLR,CLR,0.00,WeatherDisplay:10.37,2013-02-02 16:58:00,
2013-02-02 12:03:00,21.2,-4.1,29.77,SSE,149,5.0,7.0,32,0.00,CLR,CLR,0.00,WeatherDisplay:10.37,2013-02-02 17:03:00,
2013-02-02 12:09:00,21.7,-3.6,29.77,South,179,5.0,10.0,32,0.00,CLR,CLR,0.00,WeatherDisplay:10.37,2013-02-02 17:09:00,
2013-02-02 12:18:00,21.9,-3.5,29.77,SSE,159,5.0,12.0,32,0.00,CLR,CLR,0.00,WeatherDisplay:10.37,2013-02-02 17:18:00,
2013-02-02 12:28:00,22.3,-3.1,29.77,South,171,3.0,10.0,32,0.00,CLR,CLR,0.00,WeatherDisplay:10.37,2013-02-02 17:28:00,
2013-02-02 12:38:00,22.8,-2.7,29.77,SSE,157,3.0,9.0,32,0.00,CLR,CLR,0.00,WeatherDisplay:10.37,2013-02-02 17:38:00,
2013-02-02 12:43:00,23.3,-2.3,29.77,South,169,5.0,12.0,32,0.00,CLR,CLR,0.00,WeatherDisplay:10.37,2013-02-02 17:43:00,
2013-02-02 12:53:00,23.5,-2.1,29.77,SSE,163,5.0,8.0,32,0.00,CLR,CLR,0.00,WeatherDisplay:10.37,2013-02-02 17:53:00,
2013-02-02 12:58:00,23.5,-2.1,29.77,SSE,149,3.0,8.0,32,0.00,CLR,CLR,0.00,WeatherDisplay:10.37,2013-02-02 17:58:00,
2013-02-02 13:03:00,23.7,-1.9,29.74,SSE,168,8.0,13.0,32,0.00,CLR,CLR,0.00,WeatherDisplay:10.37,2013-02-02 18:03:00,
2013-02-02 13:08:00,23.8,-1.9,29.74,South,180,6.0,8.0,32,0.00,CLR,CLR,0.00,WeatherDisplay:10.37,2013-02-02 18:08:00,
2013-02-02 13:18:00,24.3,-2.1,29.74,South,187,6.0,11.0,31,0.00,CLR,CLR,0.00,WeatherDisplay:10.37,2013-02-02 18:18:00,
2013-02-02 13:28:00,24.1,-1.6,29.74,South,169,6.0,8.0,32,0.00,CLR,CLR,0.00,WeatherDisplay:10.37,2013-02-02 18:28:00,
2013-02-02 13:38:00,24.2,-1.5,29.74,SSE,168,5.0,8.0,32,0.00,CLR,CLR,0.00,WeatherDisplay:10.37,2013-02-02 18:38:00,
2013-02-02 13:48:00,24.4,-1.9,29.74,South,176,5.0,8.0,31,0.00,CLR,CLR,0.00,WeatherDisplay:10.37,2013-02-02 18:48:00,
2013-02-02 13:58:00,24.4,-1.9,29.74,South,186,6.0,13.0,31,0.00,CLR,CLR,0.00,WeatherDisplay:10.37,2013-02-02 18:58:00,
2013-02-02 14:03:00,24.4,-1.9,29.74,South,184,7.0,10.0,31,0.00,CLR,CLR,0.00,WeatherDisplay:10.37,2013-02-02 19:03:00,
2013-02-02 14:08:00,24.3,-2.1,29.74,South,170,6.0,9.0,31,0.00,CLR,CLR,0.00,WeatherDisplay:10.37,2013-02-02 19:08:00,
2013-02-02 14:18:00,24.2,-2.1,29.74,SE,146,6.0,8.0,31,0.00,CLR,CLR,0.00,WeatherDisplay:10.37,2013-02-02 19:18:00,
2013-02-02 14:28:00,23.5,-2.1,29.74,SSE,156,8.0,11.0,32,0.00,CLR,CLR,0.00,WeatherDisplay:10.37,2013-02-02 19:28:00,
2013-02-02 14:38:00,23.4,-2.2,29.74,SSE,149,5.0,8.0,32,0.00,CLR,CLR,0.00,WeatherDisplay:10.37,2013-02-02 19:38:00,
2013-02-02 14:48:00,23.2,-2.4,29.74,SSE,149,3.0,12.0,32,0.00,CLR,CLR,0.00,WeatherDisplay:10.37,2013-02-02 19:48:00,
2013-02-02 14:58:00,22.8,-2.7,29.74,SE,141,3.0,8.0,32,0.00,CLR,CLR,0.00,WeatherDisplay:10.37,2013-02-02 19:58:00,
2013-02-02 15:03:00,23.0,-2.5,29.74,SSE,156,7.0,9.0,32,0.00,CLR,CLR,0.00,WeatherDisplay:10.37,2013-02-02 20:03:00,
2013-02-02 15:08:00,23.2,-2.4,29.74,SSE,148,6.0,9.0,32,0.00,CLR,CLR,0.00,WeatherDisplay:10.37,2013-02-02 20:08:00,
2013-02-02 15:18:00,23.0,-2.5,29.74,SSE,158,5.0,10.0,32,0.00,CLR,CLR,0.00,WeatherDisplay:10.37,2013-02-02 20:18:00,
2013-02-02 15:28:00,23.0,-2.5,29.74,SE,143,3.0,7.0,32,0.00,CLR,CLR,0.00,WeatherDisplay:10.37,2013-02-02 20:28:00,
2013-02-02 15:38:00,23.1,-2.4,29.71,South,172,6.0,11.0,32,0.00,CLR,CLR,0.00,WeatherDisplay:10.37,2013-02-02 20:38:00,
2013-02-02 15:48:00,23.2,-2.4,29.71,South,183,5.0,7.0,32,0.00,CLR,CLR,0.00,WeatherDisplay:10.37,2013-02-02 20:48:00,
2013-02-02 15:58:00,23.2,-2.4,29.71,South,182,3.0,6.0,32,0.00,CLR,CLR,0.00,WeatherDisplay:10.37,2013-02-02 20:58:00,
2013-02-02 16:03:00,23.2,-2.4,29.71,South,191,3.0,8.0,32,0.00,CLR,CLR,0.00,WeatherDisplay:10.37,2013-02-02 21:03:00,
2013-02-02 16:08:00,23.2,-2.4,29.71,South,184,5.0,6.0,32,0.00,CLR,CLR,0.00,WeatherDisplay:10.37,2013-02-02 21:08:00,
2013-02-02 16:18:00,23.2,-2.4,29.71,South,180,3.0,6.0,32,0.00,CLR,CLR,0.00,WeatherDisplay:10.37,2013-02-02 21:18:00,
2013-02-02 16:28:00,22.8,-2.7,29.71,South,173,5.0,8.0,32,0.00,CLR,CLR,0.00,WeatherDisplay:10.37,2013-02-02 21:28:00,
2013-02-02 16:38:00,22.8,-2.7,29.71,South,176,5.0,8.0,32,0.00,CLR,CLR,0.00,WeatherDisplay:10.37,2013-02-02 21:38:00,
2013-02-02 16:48:00,22.6,-2.8,29.71,South,176,5.0,6.0,32,0.00,CLR,CLR,0.00,WeatherDisplay:10.37,2013-02-02 21:48:00,
2013-02-02 16:58:00,22.5,-3.0,29.71,South,174,2.0,5.0,32,0.00,CLR,CLR,0.00,WeatherDisplay:10.37,2013-02-02 21:58:00,
2013-02-02 17:03:00,22.5,-3.0,29.71,SSE,166,2.0,4.0,32,0.00,CLR,CLR,0.00,WeatherDisplay:10.37,2013-02-02 22:03:00,
2013-02-02 17:08:00,22.3,-3.2,29.71,SSE,166,2.0,4.0,32,0.00,CLR,CLR,0.00,WeatherDisplay:10.37,2013-02-02 22:08:00,
2013-02-02 17:18:00,22.1,-3.3,29.71,SSE,164,0.0,4.0,32,0.00,CLR,CLR,0.00,WeatherDisplay:10.37,2013-02-02 22:18:00,
2013-02-02 17:28:00,22.1,-3.3,29.71,SSE,164,0.0,3.0,32,0.00,CLR,CLR,0.00,WeatherDisplay:10.37,2013-02-02 22:28:00,
2013-02-02 17:38:00,21.9,-3.5,29.71,SSE,163,0.0,2.0,32,0.00,CLR,CLR,0.00,WeatherDisplay:10.37,2013-02-02 22:38:00,
2013-02-02 17:48:00,21.9,-3.5,29.71,SSE,159,0.0,0.0,32,0.00,CLR,CLR,0.00,WeatherDisplay:10.37,2013-02-02 22:48:00,
2013-02-02 17:58:00,21.7,-3.7,29.71,SSE,159,0.0,0.0,32,0.00,CLR,CLR,0.00,WeatherDisplay:10.37,2013-02-02 22:58:00,
2013-02-02 18:03:00,21.6,-3.8,29.71,SSE,168,5.0,8.0,32,0.00,CLR,CLR,0.00,WeatherDisplay:10.37,2013-02-02 23:03:00,
2013-02-02 18:08:00,21.4,-4.0,29.71,South,175,0.0,4.0,32,0.00,CLR,CLR,0.00,WeatherDisplay:10.37,2013-02-02 23:08:00,
2013-02-02 18:18:00,21.4,-4.0,29.71,South,170,3.0,5.0,32,0.00,CLR,CLR,0.00,WeatherDisplay:10.37,2013-02-02 23:18:00,
2013-02-02 18:28:00,21.5,-3.8,29.71,SSW,202,0.0,6.0,32,0.00,CLR,CLR,0.00,WeatherDisplay:10.37,2013-02-02 23:28:00,
2013-02-02 18:38:00,21.6,-3.2,29.71,SSW,212,2.0,6.0,33,0.00,CLR,CLR,0.00,WeatherDisplay:10.37,2013-02-02 23:38:00,
2013-02-02 18:48:00,21.7,-3.0,29.71,SSW,203,0.0,3.0,33,0.00,CLR,CLR,0.00,WeatherDisplay:10.37,2013-02-02 23:48:00,
2013-02-02 18:53:00,21.7,-3.0,29.71,West,264,0.0,3.0,33,0.00,CLR,CLR,0.00,WeatherDisplay:10.37,2013-02-02 23:53:00,
2013-02-02 19:03:00,21.6,-3.2,29.71,West,278,0.0,0.0,33,0.00,CLR,CLR,0.00,WeatherDisplay:10.37,2013-02-03 00:03:00,
2013-02-02 19:08:00,21.6,-3.2,29.71,WNW,284,0.0,0.0,33,0.00,CLR,CLR,0.00,WeatherDisplay:10.37,2013-02-03 00:08:00,
2013-02-02 19:18:00,21.4,-3.3,29.71,West,276,0.0,0.0,33,0.00,CLR,CLR,0.00,WeatherDisplay:10.37,2013-02-03 00:18:00,
2013-02-02 19:23:00,21.2,-3.5,29.71,WSW,251,0.0,0.0,33,0.00,CLR,CLR,0.00,WeatherDisplay:10.37,2013-02-03 00:23:00,
2013-02-02 19:33:00,21.0,-3.6,29.71,SW,231,0.0,0.0,33,0.00,CLR,CLR,0.00,WeatherDisplay:10.37,2013-02-03 00:33:00,
2013-02-02 19:38:00,20.7,-4.0,29.71,SW,230,0.0,0.0,33,0.00,CLR,CLR,0.00,WeatherDisplay:10.37,2013-02-03 00:38:00,
2013-02-02 19:43:00,20.5,-4.1,29.71,SW,230,0.0,0.0,33,0.00,CLR,CLR,0.00,WeatherDisplay:10.37,2013-02-03 00:43:00,
2013-02-02 19:53:00,20.1,-4.4,29.71,SW,224,0.0,0.0,33,0.00,CLR,CLR,0.00,WeatherDisplay:10.37,2013-02-03 00:53:00,
2013-02-02 19:58:00,19.8,-4.8,29.71,SW,220,0.0,0.0,33,0.00,CLR,CLR,0.00,WeatherDisplay:10.37,2013-02-03 00:58:00,
2013-02-02 20:03:00,19.6,-4.9,29.71,SW,218,0.0,0.0,33,0.00,CLR,CLR,0.00,WeatherDisplay:10.37,2013-02-03 01:03:00,
2013-02-02 20:08:00,19.4,-5.0,29.71,SW,218,0.0,0.0,33,0.00,CLR,CLR,0.00,WeatherDisplay:10.37,2013-02-03 01:08:00,
2013-02-02 20:18:00,19.4,-5.1,29.71,SW,218,0.0,0.0,33,0.00,CLR,CLR,0.00,WeatherDisplay:10.37,2013-02-03 01:18:00,
2013-02-02 20:29:00,19.4,-5.1,29.71,SW,217,0.0,0.0,33,0.00,CLR,CLR,0.00,WeatherDisplay:10.37,2013-02-03 01:29:00,
2013-02-02 20:39:00,19.2,-5.2,29.71,SW,217,0.0,0.0,33,0.00,CLR,CLR,0.00,WeatherDisplay:10.37,2013-02-03 01:39:00,
2013-02-02 20:49:00,19.0,-5.4,29.71,SW,217,0.0,0.0,33,0.00,CLR,CLR,0.00,WeatherDisplay:10.37,2013-02-03 01:49:00,
2013-02-02 20:59:00,19.0,-4.8,29.71,SW,217,0.0,0.0,34,0.00,CLR,CLR,0.00,WeatherDisplay:10.37,2013-02-03 01:59:00,
2013-02-02 21:04:00,19.0,-4.8,29.71,SW,217,0.0,0.0,34,0.00,CLR,CLR,0.00,WeatherDisplay:10.37,2013-02-03 02:04:00,
2013-02-02 21:09:00,19.0,-4.8,29.71,SW,217,0.0,0.0,34,0.00,CLR,CLR,0.00,WeatherDisplay:10.37,2013-02-03 02:09:00,
2013-02-02 21:19:00,19.0,-4.8,29.71,SW,218,0.0,0.0,34,0.00,CLR,CLR,0.00,WeatherDisplay:10.37,2013-02-03 02:19:00,
2013-02-02 21:29:00,19.0,-4.2,29.71,SW,218,0.0,0.0,35,0.00,CLR,CLR,0.00,WeatherDisplay:10.37,2013-02-03 02:29:00,
2013-02-02 21:39:00,19.0,-4.2,29.71,SW,218,0.0,0.0,35,0.00,CLR,CLR,0.00,WeatherDisplay:10.37,2013-02-03 02:39:00,
2013-02-02 21:44:00,19.0,-4.2,29.71,SW,218,0.0,0.0,35,0.00,CLR,CLR,0.00,WeatherDisplay:10.37,2013-02-03 02:44:00,
2013-02-02 21:49:00,19.0,-3.6,29.71,SW,224,0.0,0.0,36,0.00,CLR,CLR,0.00,WeatherDisplay:10.37,2013-02-03 02:49:00,
2013-02-02 21:59:00,19.0,-3.6,29.71,WNW,293,0.0,0.0,36,0.00,CLR,CLR,0.00,WeatherDisplay:10.37,2013-02-03 02:59:00,
2013-02-02 22:04:00,19.0,-3.6,29.71,WNW,299,0.0,0.0,36,0.00,CLR,CLR,0.00,WeatherDisplay:10.37,2013-02-03 03:04:00,
2013-02-02 22:09:00,19.0,-3.0,29.71,NW,321,0.0,0.0,37,0.00,CLR,CLR,0.00,WeatherDisplay:10.37,2013-02-03 03:09:00,
2013-02-02 22:19:00,18.9,-3.2,29.71,North,356,0.0,2.0,37,0.00,CLR,CLR,0.00,WeatherDisplay:10.37,2013-02-03 03:19:00,
2013-02-02 22:29:00,18.9,-2.6,29.71,North,357,0.0,0.0,38,0.00,CLR,CLR,0.00,WeatherDisplay:10.37,2013-02-03 03:29:00,
2013-02-02 22:39:00,18.9,-2.1,29.68,North,357,0.0,0.0,39,0.00,CLR,CLR,0.00,WeatherDisplay:10.37,2013-02-03 03:39:00,
2013-02-02 22:49:00,18.9,-2.1,29.68,North,357,0.0,0.0,39,0.00,CLR,CLR,0.00,WeatherDisplay:10.37,2013-02-03 03:49:00,
2013-02-02 22:59:00,18.9,-1.5,29.68,NNE,20,0.0,2.0,40,0.00,CLR,CLR,0.00,WeatherDisplay:10.37,2013-02-03 03:59:00,
2013-02-02 23:04:00,18.9,-1.5,29.68,NNE,30,0.0,0.0,40,0.00,CLR,CLR,0.00,WeatherDisplay:10.37,2013-02-03 04:04:00,
2013-02-02 23:09:00,18.9,-1.5,29.68,NNE,28,0.0,0.0,40,0.00,CLR,CLR,0.00,WeatherDisplay:10.37,2013-02-03 04:09:00,
2013-02-02 23:19:00,18.8,-1.1,29.68,NNE,28,0.0,0.0,41,0.00,CLR,CLR,0.00,WeatherDisplay:10.37,2013-02-03 04:19:00,
2013-02-02 23:29:00,18.9,-1.0,29.68,NNE,28,0.0,0.0,41,0.00,CLR,CLR,0.00,WeatherDisplay:10.37,2013-02-03 04:29:00,
2013-02-02 23:39:00,18.7,-1.1,29.68,NNE,28,0.0,0.0,41,0.00,CLR,CLR,0.00,WeatherDisplay:10.37,2013-02-03 04:39:00,
2013-02-02 23:49:00,18.7,-0.7,29.68,NNE,28,0.0,0.0,42,0.00,CLR,CLR,0.00,WeatherDisplay:10.37,2013-02-03 04:49:00,
2013-02-02 23:59:00,18.7,-0.7,29.68,NNE,28,0.0,2.0,42,0.00,CLR,CLR,0.00,WeatherDisplay:10.37,2013-02-03 04:59:00,